Weather History for Paynesville, MN

Change the Weather History Date:

Sunday, October 13, 2013

  Actual Average (KLJF) Record (KLJF)
Temperature  
Mean Temperature 44 °F -  
Max Temperature 57 °F 60 °F 83 °F (1956)
Min Temperature 30 °F 37 °F 22 °F (1979)
Degree Days  
Heating Degree Days 22    
Moisture  
Dew Point 34 °F    
Average Humidity 74    
Maximum Humidity 97    
Minimum Humidity 34    
Precipitation  
Precipitation 0.00 in - - ()
Sea Level Pressure  
Sea Level Pressure 30.35 in    
Wind  
Wind Speed 3 mph (West)    
Max Wind Speed 8 mph    
Max Gust Speed -    
Visibility 10 miles    
Events      
Averages and records for this station are not official NWS values.
T = Trace of Precipitation, MM = Missing Value Source: NWS Daily Summary

Daily Weather History Graph

Daily Weather History Graph

Search for Another Location

Airport:

Trip Planner

Search our weather history database for the weather conditions in past years. The results will help you decide how hot, cold, wet, or windy it might be!

Date:

Astronomy

Oct. 13, 2013 Rise Set
Actual Time 7:32 AM CDT 6:36 PM CDT
Civil Twilight 7:03 AM CDT 7:06 PM CDT
Nautical Twilight 6:28 AM CDT 7:40 PM CDT
Astronomical Twilight 5:54 AM CDT 8:14 PM CDT
Moon 3:42 PM CDT (10/13) 1:28 AM CDT (10/13)
Length of Visible Light 12h 03m
Length of Day
11h 03m
Waxing Gibbous, 69% of the Moon is Illuminated
Oct 13
Waxing Gibbous
Oct 18
Full
Oct 26
Last Quarter
Nov 3
New
Nov 9
First Quarter

Hourly Weather History & Observations

Time (CDT) Temp. Windchill Dew Point Humidity Pressure Visibility Wind Dir Wind Speed Gust Speed Precip Events Conditions
12:13 AM 36.7 °F 32.0 °F 33.8 °F 89% 30.21 in 10.0 mi WSW 5.8 mph - N/A   Clear
12:32 AM 36.0 °F 31.1 °F 33.3 °F 90% 30.21 in 10.0 mi WSW 5.8 mph - N/A   Clear
12:53 AM 35.6 °F 32.8 °F 33.4 °F 92% 30.22 in 10.0 mi WSW 3.5 mph - N/A   Clear
1:12 AM 35.1 °F 31.0 °F 32.9 °F 92% 30.23 in 10.0 mi WSW 4.6 mph - N/A   Clear
1:33 AM 34.7 °F 31.8 °F 32.4 °F 91% 30.24 in 10.0 mi West 3.5 mph - N/A   Clear
1:53 AM 34.7 °F 29.6 °F 32.2 °F 91% 30.25 in 10.0 mi WSW 5.8 mph - N/A   Clear
2:13 AM 34.9 °F 32.0 °F 32.4 °F 91% 30.25 in 10.0 mi WSW 3.5 mph - N/A   Clear
2:33 AM 34.2 °F 30.0 °F 32.0 °F 92% 30.26 in 10.0 mi WSW 4.6 mph - N/A   Clear
2:53 AM 33.1 °F 30.0 °F 31.6 °F 94% 30.26 in 10.0 mi WSW 3.5 mph - N/A   Clear
3:12 AM 32.9 °F 28.5 °F 31.8 °F 96% 30.28 in 10.0 mi WSW 4.6 mph - N/A   Clear
3:33 AM 33.3 °F 28.9 °F 32.0 °F 95% 30.28 in 10.0 mi West 4.6 mph - N/A   Clear
3:53 AM 33.1 °F 28.7 °F 32.0 °F 96% 30.28 in 10.0 mi WSW 4.6 mph - N/A   Clear
4:13 AM 33.1 °F 28.7 °F 32.0 °F 96% 30.28 in 10.0 mi WSW 4.6 mph - N/A   Clear
4:32 AM 32.7 °F 28.3 °F 31.5 °F 95% 30.30 in 10.0 mi West 4.6 mph - N/A   Clear
4:53 AM 32.5 °F 27.1 °F 31.5 °F 96% 30.30 in 10.0 mi West 5.8 mph - N/A   Clear
5:12 AM 32.4 °F 26.9 °F 31.6 °F 97% 30.31 in 10.0 mi West 5.8 mph - N/A   Clear
5:33 AM 32.2 °F 26.7 °F 31.1 °F 96% 30.32 in 10.0 mi WSW 5.8 mph - N/A   Clear
5:53 AM 32.0 °F 28.7 °F 30.7 °F 95% 30.33 in 10.0 mi West 3.5 mph - N/A   Clear
6:13 AM 32.0 °F - 30.9 °F 96% 30.33 in 10.0 mi Calm Calm - N/A   Clear
6:33 AM 31.8 °F 28.5 °F 30.6 °F 95% 30.33 in 10.0 mi WSW 3.5 mph - N/A   Clear
6:53 AM 32.0 °F 27.5 °F 30.9 °F 96% 30.34 in 10.0 mi WSW 4.6 mph - N/A   Clear
7:13 AM 30.9 °F 26.2 °F 29.8 °F 96% 30.35 in 10.0 mi WSW 4.6 mph - N/A   Clear
7:33 AM 31.5 °F - 30.6 °F 96% 30.36 in 10.0 mi Calm Calm - N/A   Clear
7:53 AM 31.6 °F - 30.7 °F 96% 30.36 in 10.0 mi Calm Calm - N/A   Clear
8:13 AM 32.0 °F - 31.3 °F 97% 30.37 in 10.0 mi Calm Calm - N/A   Clear
8:32 AM 33.6 °F - 32.4 °F 95% 30.38 in 10.0 mi Calm Calm - N/A   Clear
8:53 AM 35.6 °F - 34.2 °F 94% 30.39 in 10.0 mi Calm Calm - N/A   Clear
9:12 AM 37.9 °F - 35.6 °F 91% 30.40 in 10.0 mi Calm Calm - N/A   Clear
9:32 AM 40.3 °F - 37.0 °F 88% 30.40 in 10.0 mi Calm Calm - N/A   Clear
9:52 AM 42.4 °F - 38.1 °F 85% 30.41 in 10.0 mi Calm Calm - N/A   Clear
10:13 AM 44.6 °F - 38.7 °F 80% 30.41 in 10.0 mi Calm Calm - N/A   Clear
10:32 AM 46.6 °F - 39.0 °F 75% 30.43 in 10.0 mi Calm Calm - N/A   Clear
10:53 AM 49.1 °F - 39.2 °F 69% 30.43 in 10.0 mi Calm Calm - N/A   Clear
11:13 AM 51.3 °F - 38.3 °F 61% 30.43 in 10.0 mi Calm Calm - N/A   Clear
11:32 AM 52.7 °F - 36.7 °F 55% 30.42 in 10.0 mi Calm Calm - N/A   Clear
11:53 AM 53.6 °F - 35.4 °F 50% 30.42 in 10.0 mi WNW 5.8 mph - N/A   Clear
12:12 PM 54.5 °F - 31.3 °F 41% 30.42 in 10.0 mi WNW 4.6 mph - N/A   Clear
12:33 PM 55.4 °F - 31.8 °F 41% 30.42 in 10.0 mi WNW 4.6 mph - N/A   Clear
12:52 PM 55.2 °F - 31.8 °F 41% 30.41 in 10.0 mi NW 5.8 mph - N/A   Clear
1:13 PM 55.0 °F - 32.5 °F 43% 30.41 in 10.0 mi NW 4.6 mph - N/A   Clear
1:32 PM 55.4 °F - 31.3 °F 40% 30.40 in 10.0 mi West 8.1 mph - N/A   Clear
1:53 PM 55.9 °F - 31.3 °F 39% 30.40 in 10.0 mi NW 5.8 mph - N/A   Clear
2:13 PM 56.5 °F - 30.0 °F 36% 30.39 in 10.0 mi NW 5.8 mph - N/A   Clear
2:32 PM 57.0 °F - 30.2 °F 36% 30.38 in 10.0 mi North 4.6 mph - N/A   Clear
2:53 PM 57.2 °F - 30.7 °F 37% 30.38 in 10.0 mi NW 4.6 mph - N/A   Clear
3:13 PM 56.7 °F - 30.7 °F 37% 30.38 in 10.0 mi NW 3.5 mph - N/A   Clear
3:32 PM 57.2 °F - 30.2 °F 36% 30.38 in 10.0 mi NE 3.5 mph - N/A   Clear
3:53 PM 56.8 °F - 30.4 °F 37% 30.37 in 10.0 mi Calm Calm - N/A   Clear
4:13 PM 57.7 °F - 29.7 °F 34% 30.37 in 10.0 mi Calm Calm - N/A   Clear
4:33 PM 57.2 °F - 29.3 °F 35% 30.37 in 10.0 mi Calm Calm - N/A   Clear
4:53 PM 57.2 °F - 29.3 °F 35% 30.36 in 10.0 mi Calm Calm - N/A   Clear
5:13 PM 57.0 °F - 29.8 °F 36% 30.36 in 10.0 mi Calm Calm - N/A   Clear
5:32 PM 56.5 °F - 28.8 °F 35% 30.37 in 10.0 mi Calm Calm - N/A   Clear
5:53 PM 54.5 °F - 32.0 °F 42% 30.37 in 10.0 mi Calm Calm - N/A   Clear
6:13 PM 53.1 °F - 32.9 °F 46% 30.37 in 10.0 mi Calm Calm - N/A   Clear
6:33 PM 51.3 °F - 33.8 °F 51% 30.37 in 10.0 mi Calm Calm - N/A   Clear
6:53 PM 47.8 °F - 35.6 °F 63% 30.37 in 10.0 mi Calm Calm - N/A   Scattered Clouds
7:12 PM 46.8 °F - 37.0 °F 69% 30.37 in 10.0 mi Calm Calm - N/A   Scattered Clouds
7:33 PM 46.2 °F - 36.0 °F 67% 30.37 in 10.0 mi Calm Calm - N/A   Clear
7:52 PM 45.7 °F - 36.5 °F 70% 30.38 in 10.0 mi Calm Calm - N/A   Clear
8:13 PM 44.4 °F - 38.3 °F 79% 30.37 in 10.0 mi Calm Calm - N/A   Clear
8:33 PM 43.3 °F - 37.9 °F 81% 30.37 in 10.0 mi Calm Calm - N/A   Clear
8:53 PM 43.3 °F - 37.9 °F 81% 30.37 in 7.0 mi Calm Calm - N/A   Unknown
9:12 PM 41.2 °F - 37.9 °F 88% 30.37 in 1.2 mi Calm Calm - N/A   Mist
9:33 PM 41.2 °F - 37.9 °F 88% 30.37 in 7.0 mi Calm Calm - N/A   Clear
9:53 PM 40.1 °F - 37.4 °F 90% 30.37 in 10.0 mi Calm Calm - N/A   Clear
10:12 PM 40.3 °F - 37.0 °F 88% 30.37 in 10.0 mi Calm Calm - N/A   Clear
10:33 PM 39.6 °F - 37.4 °F 92% 30.37 in 10.0 mi Calm Calm - N/A   Clear
10:52 PM 39.4 °F - 37.4 °F 93% 30.38 in 10.0 mi Calm Calm - N/A   Clear
11:13 PM 40.1 °F - 37.4 °F 90% 30.38 in 10.0 mi Calm Calm - N/A   Unknown
11:33 PM 39.7 °F - 37.4 °F 91% 30.38 in 10.0 mi Calm Calm - N/A   Clear
11:52 PM 40.6 °F - 38.1 °F 91% 30.38 in 10.0 mi Calm Calm - N/A   Clear